Dewpoint
10 11 11 12 14 15 15 16 16 16 17 17 17 17 17 16 16 17 17 16 13 13 14 14 14 14 14 14 14 16 15 16 17 16 13 13 14 15 16 15 15 15
9 11 11 12 14 14 15 16 16 15 16 17 17 17 17 16 15 15 15 15 13 14 14 13 14 13 15 16 14 14 14 13 16 17 14 13 15 16 16 15 15 15
8 9 10 12 13 13 14 15 16 16 16 16 17 18 18 17 16 15 14 14 15 16 15 13 14 14 14 15 14 13 14 12 15 18 15 13 15 17 16 15 15 15
8 9 11 13 14 14 14 15 15 15 15 16 16 17 17 17 16 16 14 13 14 16 16 14 14 15 14 13 13 14 15 13 14 16 15 12 14 17 17 16 15 15
9 9 11 14 15 14 15 14 14 14 14 15 15 16 16 17 17 17 16 14 12 14 16 15 14 15 14 13 13 14 15 15 14 14 13 13 14 16 17 17 16 16
11 10 10 13 15 15 15 14 14 14 14 14 15 15 16 16 16 17 17 16 14 14 16 16 15 16 15 14 12 13 15 17 16 14 12 13 14 16 17 17 16 16
14 12 10 12 14 15 14 15 14 14 14 14 14 14 15 16 16 16 16 16 16 15 16 16 16 16 17 16 14 12 13 16 17 15 13 14 14 15 17 17 15 14
16 15 13 12 14 14 14 14 15 14 14 14 14 14 14 15 15 15 16 16 16 16 15 16 16 15 16 17 16 13 13 15 16 15 13 14 14 13 14 16 15 13
17 16 15 14 14 14 14 14 14 14 14 13 13 13 14 14 15 15 15 15 15 16 16 16 16 15 14 16 16 14 13 15 17 16 14 14 14 14 14 15 15 14
17 17 16 16 15 14 13 13 12 13 14 13 12 12 13 13 14 14 15 15 15 15 15 16 15 15 14 16 16 14 13 12 14 15 15 15 15 16 16 16 16 16
17 17 16 16 15 14 13 13 12 12 13 13 13 12 11 12 13 13 14 15 15 14 14 14 13 12 13 15 15 15 13 13 12 12 12 13 13 14 15 15 16 16
17 17 16 16 16 14 14 13 12 11 12 13 13 12 11 11 12 12 12 12 12 12 12 12 9 8 8 11 14 15 14 14 14 13 12 12 11 12 12 13 14 15
17 17 16 16 16 15 14 13 13 12 11 11 12 12 12 11 12 13 12 8 5 6 10 11 8 6 5 4 8 12 14 14 14 14 14 13 13 13 13 13 13 14
16 16 17 16 16 16 15 14 13 13 12 11 12 12 12 11 11 12 13 10 5 1 4 8 8 6 5 3 3 8 12 14 13 13 13 14 14 14 14 14 13 14
16 16 17 17 17 17 16 16 15 14 13 12 12 12 13 12 11 11 12 13 11 6 3 6 10 10 9 7 4 3 8 12 13 13 12 13 13 14 14 13 13 13
16 16 17 17 17 17 17 17 16 16 15 14 13 13 13 13 12 11 12 13 14 12 9 9 11 12 11 9 5 2 4 9 11 13 13 13 13 13 13 12 12 12
17 17 17 17 17 17 18 18 17 17 16 15 15 15 14 14 14 14 13 12 13 13 13 12 11 11 11 10 7 3 2 6 9 11 13 13 13 13 12 11 11 11
16 17 17 17 17 17 18 18 18 18 17 16 16 16 16 15 15 15 15 14 13 13 13 13 12 11 11 10 9 6 2 3 8 11 12 13 13 13 12 11 11 11
16 16 16 16 16 17 17 17 18 18 17 17 17 17 17 17 16 16 16 15 15 14 13 13 13 12 12 12 11 9 5 2 4 8 11 12 13 13 13 13 12 11
15 15 15 15 16 16 17 17 17 17 17 18 17 17 17 17 17 17 17 16 15 14 14 14 14 13 13 13 13 12 9 6 3 4 7 9 11 12 13 14 14 13
14 14 14 15 15 16 17 17 17 17 17 17 18 17 17 17 17 17 17 17 16 15 15 15 14 14 14 14 14 14 13 11 9 8 8 7 8 9 10 12 14 14
16 15 15 15 16 16 16 16 17 17 17 17 17 17 17 17 17 18 18 17 17 16 16 16 15 15 15 14 14 14 14 14 13 13 12 11 9 7 6 6 8 10
16 16 16 16 16 16 16 16 17 17 16 16 16 16 16 16 16 17 17 17 17 17 17 17 16 16 15 15 14 14 14 14 15 14 14 14 13 11 9 7 4 4
15 15 16 16 16 16 16 16 17 17 17 16 16 15 16 16 16 16 17 17 17 17 17 17 17 16 16 15 15 14 14 14 15 15 15 15 14 14 13 11 10 7
13 14 15 15 16 16 17 17 17 16 16 17 17 16 16 16 16 16 17 17 17 17 17 17 17 17 17 16 15 15 15 15 15 15 15 15 15 15 15 14 13 12
9 12 13 14 14 14 15 16 16 16 16 17 17 17 17 17 16 17 17 17 17 17 17 17 18 18 17 17 16 15 15 15 15 15 15 15 15 15 15 15 15 15
Wind_Speed
19 17 17 17 16 15 14 14 14 14 13 11 10 10 10 9 10 10 10 9 8 8 8 8 7 8 7 7 8 7 7 7 7 6 6 6 7 7 7 7 7 7
19 18 18 17 17 16 15 15 14 14 14 13 11 10 11 11 11 11 11 10 8 8 9 8 8 7 7 7 7 7 7 8 7 6 5 6 6 7 7 7 7 8
19 20 19 18 17 17 16 15 15 14 14 14 13 12 12 12 12 12 11 10 9 9 9 9 8 8 7 7 7 7 7 7 7 6 6 6 6 6 6 6 7 7
18 20 20 19 17 17 16 16 16 16 15 14 15 14 13 12 13 12 12 11 11 11 10 10 9 9 8 7 7 6 6 6 7 7 7 7 6 6 5 6 7 7
16 18 20 19 18 17 17 17 17 16 16 15 15 15 15 14 13 13 13 12 12 12 11 11 10 10 9 8 7 7 7 6 6 7 7 6 6 6 5 6 7 7
17 16 18 19 20 19 18 18 17 17 17 16 16 15 16 16 16 14 13 13 12 12 11 11 11 11 10 9 8 8 8 7 7 6 6 7 7 6 6 6 7 7
18 17 17 18 20 21 20 19 18 18 17 17 16 16 16 16 17 16 15 13 13 12 12 12 12 12 12 11 10 9 9 9 9 9 7 7 7 7 7 8 8 8
19 18 18 18 19 21 21 21 20 20 19 18 17 17 17 17 16 16 16 15 14 14 13 13 14 13 13 12 11 11 10 10 10 10 8 7 8 7 8 9 8 8
20 20 19 19 20 20 21 21 21 20 20 20 19 18 18 18 17 16 17 17 17 16 15 15 15 14 13 13 13 12 11 11 11 11 10 9 9 9 9 9 9 9
21 21 20 20 21 21 21 21 21 21 21 21 20 19 18 18 19 18 18 19 19 18 18 17 17 16 14 14 14 13 13 12 11 12 11 11 11 10 11 11 11 11
21 21 21 21 21 21 21 21 21 21 21 22 21 20 19 19 20 20 20 21 21 21 21 20 19 18 17 16 14 14 14 13 12 13 12 12 12 11 12 12 13 13
21 21 22 22 22 22 21 21 21 21 22 22 22 22 21 21 20 21 22 23 23 22 22 22 21 20 20 19 17 15 15 14 14 14 13 13 13 12 12 12 13 14
20 21 21 22 22 22 22 22 21 22 22 22 21 22 23 23 22 22 23 25 25 24 23 23 23 23 22 22 20 18 17 16 15 15 15 14 14 13 13 13 14 14
19 20 21 22 22 22 22 23 22 22 22 22 22 22 23 23 23 23 23 24 25 25 25 24 25 25 25 25 24 22 20 18 18 17 16 16 15 15 15 15 15 15
17 18 19 21 22 22 22 23 23 23 23 23 23 23 23 23 23 23 23 23 24 25 25 25 25 25 26 26 27 26 24 21 20 20 19 18 17 17 16 16 17 16
16 17 16 17 19 20 22 22 22 23 23 24 24 24 23 23 23 23 23 23 23 24 25 25 25 25 26 27 28 28 26 24 22 21 21 21 20 20 19 19 18 18
18 16 14 15 16 17 19 20 21 23 23 24 25 25 25 25 24 24 24 23 23 23 24 25 25 25 27 28 29 29 28 27 25 24 23 23 23 23 23 22 21 21
17 15 13 14 16 16 17 19 20 21 23 24 25 26 26 27 27 26 25 25 24 23 24 24 25 25 27 29 30 31 30 29 27 25 24 24 24 25 25 25 24 23
16 15 14 15 17 18 19 20 20 21 22 23 24 24 25 26 27 27 27 27 26 26 25 25 24 25 26 28 30 32 32 31 30 28 26 24 24 25 25 26 26 26
19 19 18 18 19 20 22 21 21 22 22 22 23 23 23 24 25 25 26 27 27 28 28 27 26 26 26 28 30 32 32 32 31 31 30 29 28 26 25 25 26 27
24 26 26 23 22 23 23 21 22 22 21 21 23 21 20 22 23 22 23 25 26 27 28 29 29 29 29 29 30 32 33 33 32 32 33 34 33 33 31 29 28 27
20 24 25 22 21 22 22 22 23 23 21 21 21 19 20 22 22 22 23 24 25 25 27 28 29 30 32 33 33 34 34 33 32 32 33 34 36 37 37 37 36 34
13 17 19 19 20 22 23 23 23 22 21 20 20 21 23 25 23 22 22 23 24 25 26 28 28 29 32 34 35 35 35 33 33 32 33 34 36 37 39 40 41 41
7 10 14 16 17 18 19 21 21 20 20 20 20 23 25 25 24 24 24 24 25 25 26 27 28 29 31 33 34 35 35 34 33 33 33 34 36 37 38 40 41 42
8 8 8 9 10 11 13 15 19 21 21 19 20 23 24 25 26 26 26 27 27 26 26 27 28 29 31 33 34 34 34 34 33 33 34 35 36 37 38 39 40 42
12 11 9 9 9 8 7 9 13 18 20 20 21 23 23 24 26 27 27 27 27 25 26 27 28 28 30 32 33 35 35 34 33 33 34 35 36 37 38 38 39 40
Wind_Direction
204 202 201 203 201 196 197 200 198 201 200 193 194 198 195 196 193 192 202 206 199 194 196 195 188 182 183 186 180 181 189 180 184 202 195 194 200 200 212 215 216 222
206 203 202 201 202 200 197 199 199 200 201 194 189 192 196 200 200 199 202 207 203 200 202 197 195 193 185 188 190 182 186 183 179 194 194 190 198 202 214 219 220 224
208 207 205 201 202 204 200 199 200 200 201 199 192 190 194 198 201 201 202 206 202 203 210 205 199 200 195 193 192 187 189 182 177 196 201 191 196 206 213 215 219 226
210 210 208 202 200 204 200 199 203 202 200 202 200 197 195 196 201 202 203 205 202 203 210 211 205 204 203 201 198 194 195 190 184 194 200 192 194 203 210 214 215 217
210 210 209 203 199 202 201 200 204 205 203 203 203 203 202 200 200 202 206 208 207 206 207 210 209 207 206 206 206 203 202 205 201 194 193 196 199 203 211 218 215 212
212 211 210 205 200 202 202 202 204 205 206 207 205 205 207 207 203 200 204 209 207 206 207 212 213 209 210 211 208 208 208 209 215 213 202 203 206 205 215 225 222 218
211 212 212 208 204 204 204 204 206 206 206 207 208 207 207 210 212 206 203 206 206 204 206 211 215 211 211 215 212 209 209 205 214 223 216 211 216 210 212 226 227 223
205 209 212 210 206 206 207 206 207 208 207 207 209 210 208 209 214 213 208 207 206 206 205 208 217 217 209 213 217 213 211 207 213 225 222 216 225 223 216 223 228 226
200 204 209 209 205 205 208 207 208 209 209 209 209 212 213 211 211 211 213 215 210 208 208 207 216 221 211 211 219 217 214 211 213 225 228 222 226 230 228 228 231 232
202 202 205 208 206 206 207 206 208 209 211 213 211 211 214 216 214 210 212 218 216 211 213 212 214 218 214 212 219 221 219 216 215 221 228 228 228 230 233 234 235 237
206 205 205 207 207 208 209 208 208 208 211 214 213 211 212 216 219 216 212 216 219 217 218 219 219 221 218 214 217 222 223 221 221 225 228 230 230 231 232 234 236 239
206 208 208 209 209 210 211 211 210 209 209 212 213 212 211 212 218 221 220 221 224 224 222 224 226 225 224 220 215 219 224 224 225 229 232 232 234 236 237 238 239 240
208 210 210 210 212 212 212 213 213 212 211 211 212 213 212 212 213 218 224 228 231 230 226 227 229 229 228 226 220 217 221 224 225 227 232 235 237 237 238 240 243 243
211 212 212 212 213 213 214 215 215 215 214 212 212 212 213 214 213 214 221 228 232 234 231 229 231 231 231 230 227 222 220 223 225 226 229 233 236 238 237 238 241 243
216 214 214 213 213 214 215 216 217 217 216 215 215 215 214 215 216 215 217 222 227 233 234 230 229 230 231 231 231 229 225 224 226 229 231 232 234 237 239 239 240 242
223 219 220 217 215 216 216 217 218 219 219 219 218 218 218 217 217 217 217 219 222 226 230 229 225 226 230 232 234 233 231 228 228 231 233 234 236 237 239 240 241 243
219 218 222 223 221 221 220 220 221 221 221 223 222 220 220 220 220 219 219 220 222 224 226 226 226 227 230 236 239 238 235 232 231 233 235 237 239 240 242 243 242 242
220 226 230 231 228 225 225 227 229 229 225 224 224 223 222 222 223 223 223 223 225 226 227 228 229 230 231 236 242 244 241 237 235 235 236 239 242 244 245 246 245 243
221 232 237 241 240 236 235 233 234 238 236 230 226 225 224 224 225 227 228 229 229 228 229 231 232 233 234 236 241 246 247 244 239 236 236 238 240 243 245 246 246 244
232 240 242 248 253 250 246 241 237 240 241 239 234 229 226 226 227 227 230 233 235 234 232 232 232 233 235 238 242 247 249 248 245 241 240 239 238 239 241 243 246 246
238 245 245 250 257 256 253 249 246 244 241 243 243 237 233 232 230 230 231 233 237 238 236 236 235 233 233 235 239 245 248 249 248 245 244 243 241 240 239 239 242 244
238 244 245 249 256 255 252 251 251 247 243 246 247 243 239 236 231 230 233 233 235 237 237 237 237 236 236 236 238 242 246 249 250 249 247 246 245 244 243 243 243 243
252 252 249 250 254 254 253 252 250 245 240 243 244 240 238 236 231 228 232 234 234 235 236 237 237 238 239 240 241 242 244 247 249 249 249 248 247 247 247 247 247 247
288 275 261 254 254 259 261 259 257 254 247 241 239 237 236 236 233 230 232 235 234 233 235 237 238 239 240 242 243 243 244 245 246 247 249 249 249 249 248 248 249 249
343 322 295 278 271 272 271 266 262 258 252 244 239 241 244 242 237 234 234 235 233 235 238 238 238 239 242 243 244 244 244 244 244 245 247 248 249 250 251 251 251 251
340 334 326 325 315 296 287 282 268 255 250 248 247 249 253 250 243 239 239 239 237 238 240 240 239 240 241 243 244 245 244 244 244 244 245 246 248 250 251 252 253 254
Height
1578 1579 1581 1583 1585 1587 1589 1590 1591 1592 1593 1595 1596 1597 1598 1599 1600 1601 1602 1603 1603 1604 1604 1605 1606 1606 1607 1608 1608 1609 1609 1610 1611 1611 1611 1612 1612 1613 1614 1615 1615 1616
1576 1578 1580 1582 1584 1586 1588 1589 1591 1591 1592 1594 1595 1596 1597 1598 1599 1600 1601 1602 1603 1604 1604 1605 1605 1606 1607 1607 1608 1608 1609 1609 1610 1610 1611 1611 1612 1613 1614 1614 1614 1615
1575 1577 1578 1581 1583 1584 1586 1588 1589 1590 1592 1593 1594 1595 1596 1597 1598 1599 1600 1601 1602 1603 1604 1604 1605 1605 1606 1607 1607 1607 1608 1608 1609 1610 1610 1610 1611 1612 1613 1613 1614 1614
1573 1575 1577 1580 1582 1583 1585 1587 1588 1589 1590 1592 1593 1594 1595 1597 1597 1598 1599 1600 1601 1602 1603 1604 1604 1605 1605 1606 1607 1607 1607 1608 1609 1609 1610 1610 1610 1611 1612 1613 1613 1614
1571 1573 1575 1578 1580 1582 1584 1585 1587 1588 1589 1591 1592 1593 1594 1595 1596 1597 1598 1599 1600 1601 1602 1603 1604 1604 1605 1606 1606 1607 1607 1608 1608 1609 1609 1609 1610 1610 1611 1611 1612 1612
1569 1571 1573 1576 1578 1580 1582 1583 1585 1586 1588 1589 1591 1592 1593 1593 1595 1596 1597 1598 1599 1600 1601 1602 1603 1603 1604 1605 1605 1606 1607 1607 1608 1608 1608 1609 1609 1610 1610 1610 1610 1611
1567 1569 1571 1574 1576 1578 1580 1582 1583 1585 1586 1588 1589 1590 1592 1592 1593 1594 1596 1597 1598 1599 1600 1601 1602 1602 1603 1604 1604 1605 1606 1606 1607 1607 1608 1608 1608 1609 1609 1609 1609 1610
1566 1567 1569 1571 1573 1576 1577 1579 1581 1582 1584 1586 1587 1589 1590 1591 1592 1593 1594 1595 1597 1598 1599 1600 1600 1601 1602 1603 1603 1604 1604 1605 1606 1606 1606 1607 1607 1608 1608 1608 1609 1609
1564 1566 1567 1569 1571 1573 1575 1577 1578 1580 1582 1583 1585 1587 1588 1589 1590 1591 1592 1593 1595 1596 1597 1598 1599 1599 1600 1602 1602 1603 1603 1604 1605 1605 1605 1606 1606 1607 1607 1607 1608 1608
1561 1563 1565 1567 1569 1571 1572 1574 1576 1578 1579 1580 1582 1585 1586 1587 1588 1589 1591 1591 1592 1593 1594 1596 1597 1597 1599 1600 1601 1601 1602 1603 1604 1604 1604 1604 1605 1605 1606 1606 1606 1606
1559 1561 1563 1565 1567 1569 1570 1572 1574 1575 1577 1578 1580 1582 1584 1585 1585 1586 1588 1589 1589 1591 1592 1593 1594 1595 1596 1598 1599 1600 1601 1601 1602 1603 1603 1603 1604 1604 1605 1605 1605 1605
1557 1559 1561 1563 1564 1566 1568 1570 1571 1573 1574 1575 1577 1579 1581 1582 1583 1584 1585 1586 1587 1588 1589 1590 1592 1593 1594 1595 1597 1599 1599 1600 1601 1601 1602 1602 1603 1603 1603 1603 1604 1604
1555 1557 1558 1560 1562 1564 1566 1567 1569 1571 1572 1573 1574 1576 1577 1579 1581 1581 1582 1583 1584 1585 1587 1588 1589 1590 1592 1593 1594 1596 1598 1598 1599 1600 1600 1601 1601 1602 1602 1603 1603 1603
1553 1555 1556 1558 1560 1561 1563 1565 1566 1568 1569 1571 1572 1573 1574 1576 1578 1579 1579 1580 1581 1582 1584 1585 1586 1587 1589 1590 1591 1593 1595 1596 1597 1598 1599 1599 1600 1600 1601 1602 1602 1602
1552 1553 1555 1556 1557 1559 1560 1562 1564 1565 1567 1568 1569 1570 1572 1573 1575 1577 1577 1578 1579 1580 1581 1582 1583 1584 1585 1587 1588 1590 1592 1594 1594 1595 1596 1597 1598 1598 1599 1600 1600 1600
1550 1552 1554 1555 1556 1557 1558 1560 1561 1563 1564 1565 1567 1568 1569 1571 1572 1574 1575 1576 1576 1577 1578 1579 1581 1582 1582 1583 1585 1587 1589 1591 1592 1593 1594 1594 1595 1596 1596 1597 1597 1598
1547 1550 1552 1554 1555 1556 1557 1558 1559 1561 1562 1563 1564 1565 1567 1568 1569 1571 1572 1573 1574 1575 1576 1577 1578 1579 1579 1580 1582 1584 1586 1587 1589 1590 1591 1591 1592 1592 1593 1594 1594 1595
1547 1549 1551 1552 1553 1554 1556 1556 1557 1558 1559 1561 1562 1563 1564 1565 1566 1567 1569 1570 1572 1573 1574 1574 1575 1576 1577 1577 1578 1580 1582 1584 1586 1587 1588 1588 1589 1589 1590 1590 1591 1592
1546 1548 1550 1551 1552 1553 1554 1554 1555 1556 1557 1558 1560 1561 1562 1563 1563 1565 1565 1567 1568 1569 1571 1571 1572 1574 1574 1575 1576 1577 1579 1581 1583 1584 1585 1585 1586 1586 1586 1587 1587 1588
1544 1545 1547 1549 1550 1551 1552 1552 1553 1554 1555 1557 1558 1559 1560 1561 1561 1562 1563 1563 1564 1565 1566 1567 1569 1570 1571 1572 1572 1573 1575 1577 1579 1580 1581 1581 1582 1583 1583 1583 1583 1584
1542 1543 1545 1547 1548 1549 1550 1551 1552 1552 1553 1555 1556 1557 1558 1559 1559 1560 1560 1561 1561 1561 1562 1563 1564 1566 1567 1568 1568 1569 1571 1572 1574 1576 1576 1577 1577 1578 1579 1580 1580 1580
1540 1541 1543 1545 1546 1547 1548 1549 1550 1550 1551 1553 1554 1556 1556 1556 1557 1557 1557 1557 1557 1558 1558 1559 1560 1561 1562 1563 1564 1565 1567 1568 1569 1571 1572 1572 1573 1573 1574 1575 1575 1576
1539 1540 1541 1542 1544 1545 1546 1546 1547 1548 1548 1549 1551 1552 1552 1553 1554 1554 1553 1553 1553 1553 1554 1554 1555 1557 1557 1558 1560 1561 1563 1564 1565 1566 1567 1567 1568 1569 1569 1570 1570 1571
1537 1538 1539 1540 1541 1543 1544 1545 1546 1546 1546 1546 1546 1547 1548 1550 1551 1551 1550 1550 1550 1550 1550 1550 1551 1552 1553 1554 1555 1557 1558 1559 1560 1561 1562 1563 1563 1564 1565 1565 1565 1566
1536 1537 1537 1538 1539 1540 1541 1543 1544 1544 1544 1544 1544 1544 1545 1547 1547 1546 1546 1546 1546 1546 1546 1546 1546 1547 1548 1549 1550 1552 1554 1555 1556 1557 1557 1558 1559 1560 1560 1561 1561 1562
1535 1536 1536 1537 1537 1537 1538 1540 1540 1540 1540 1541 1542 1543 1544 1544 1543 1542 1541 1542 1543 1543 1544 1544 1543 1543 1544 1544 1545 1547 1548 1550 1552 1552 1553 1554 1555 1555 1556 1557 1557 1557